GW1263 Weather Reports


Display with metric or nautical units.
time (UTC)temp
F
wind
direction
speed
MPH
gust
MPH
rain 1hr
in
rain 24hr
in
rain mn
in
humidity
%
barometer
mb
20260503023004 42 51 0.0 1.0 0.00 0.00 0.00 77 1018.8
20260503021510 43 51 0.0 2.0 0.00 0.00 0.00 76 1018.7
20260503020012 44 51 0.0 0.0 0.00 0.00 0.00 74 1018.5
20260503014531 45 51 0.0 0.0 0.00 0.00 0.00 73 1018.3
20260503013027 46 51 0.0 0.0 0.00 0.00 0.00 71 1018.2
20260503011504 47 51 0.0 0.0 0.00 0.00 0.00 68 1018.0
20260503010011 48 51 0.0 0.0 0.00 0.00 0.00 67 1017.8
20260503004544 49 12 0.0 0.0 0.00 0.00 0.00 62 1017.6
20260503003018 51 312 0.0 0.0 0.00 0.00 0.00 59 1017.4
20260503001524 51 312 0.0 2.0 0.00 0.00 0.00 54 1017.1
20260503000014 52 337 0.0 0.0 0.00 0.00 0.00 50 1016.9
20260502234512 53 337 0.0 3.0 0.00 0.00 0.00 47 1016.8
20260502233019 53 180 0.0 2.0 0.00 0.00 0.00 46 1016.8
20260502231520 53 204 0.0 3.0 0.00 0.00 0.00 44 1016.7
20260502230028 54 317 2.0 4.0 0.00 0.00 0.00 43 1016.6
20260502224512 54 96 1.0 4.0 0.00 0.00 0.00 43 1016.6
20260502223017 54 129 1.0 7.0 0.00 0.00 0.00 45 1016.5
20260502221521 55 346 2.0 5.0 0.00 0.00 0.00 41 1016.5
20260502220033 55 318 2.0 9.0 0.00 0.00 0.00 41 1016.3
20260502214526 56 318 1.0 7.0 0.00 0.00 0.00 41 1016.2
20260502213012 56 250 4.0 10.0 0.00 0.00 0.00 39 1016.1
20260502211528 56 143 2.0 8.0 0.00 0.00 0.00 39 1016.1
20260502210022 56 318 3.0 9.0 0.00 0.00 0.00 39 1016.1
20260502204507 56 331 2.0 8.0 0.00 0.00 0.00 39 1016.0
20260502203009 56 350 3.0 9.0 0.00 0.00 0.00 39 1016.2
20260502201515 56 288 3.0 7.0 0.00 0.00 0.00 41 1016.3
20260502200020 56 264 2.0 7.0 0.00 0.00 0.00 41 1016.4
20260502194526 56 228 4.0 10.0 0.00 0.00 0.00 41 1016.5
20260502193006 56 311 1.0 5.0 0.00 0.00 0.00 44 1016.7
20260502191521 55 292 2.0 7.0 0.00 0.00 0.00 43 1016.8
20260502190020 56 262 4.0 8.0 0.00 0.00 0.00 42 1016.8
20260502184523 56 334 3.0 7.0 0.00 0.00 0.00 41 1017.0
20260502183024 57 316 3.0 6.0 0.00 0.00 0.00 42 1017.0
20260502181529 55 276 3.0 8.0 0.00 0.00 0.00 44 1017.2
20260502163032 57 307 2.0 9.0 0.00 0.00 0.00 42 1017.9
20260502161527 56 313 2.0 14.0 0.00 0.00 0.00 43 1017.8
20260502151524 54 172 1.0 7.0 0.00 0.00 0.00 51 1018.2
20260502123002 39 237 1.0 3.0 0.00 0.00 0.00 96 1018.2
20260502121503 38 248 0.0 2.0 0.00 0.00 0.00 96 1018.1
20260502114503 36 61 0.0 0.0 0.00 0.00 0.00 96 1017.9
20260502113003 34 61 0.0 0.0 0.00 0.00 0.00 95 1018.0
20260502111503 34 61 0.0 0.0 0.00 0.00 0.00 95 1017.9
20260502110006 34 61 0.0 0.0 0.00 0.00 0.00 94 1017.7
20260502104518 34 61 0.0 0.0 0.00 0.00 0.00 94 1017.5
20260502103003 34 61 0.0 0.0 0.00 0.00 0.00 94 1017.5
20260502101508 34 61 0.0 0.0 0.00 0.00 0.00 94 1017.6
20260502091512 35 61 0.0 0.0 0.00 0.00 0.00 94 1017.8
20260502071517 36 61 0.0 1.0 0.00 0.00 0.00 93 1017.7
20260502070011 36 34 0.0 3.0 0.00 0.00 0.00 93 1017.7
20260502064513 36 34 0.0 2.0 0.00 0.00 0.00 93 1017.9
20260502063003 37 34 0.0 0.0 0.00 0.00 0.00 92 1018.0
20260502061504 37 34 0.0 0.0 0.00 0.00 0.00 92 1018.0
20260502060004 38 34 0.0 0.0 0.00 0.00 0.00 91 1018.0
20260502054513 38 34 0.0 0.0 0.00 0.00 0.00 91 1018.0
20260502053014 39 34 0.0 0.0 0.00 0.00 0.00 90 1018.2
20260502051504 39 34 0.0 0.0 0.00 0.00 0.00 90 1018.3
20260502050004 39 34 0.0 1.0 0.00 0.00 0.00 89 1018.3
20260502044505 40 34 0.0 1.0 0.00 0.00 0.00 89 1018.2
20260502043019 41 34 0.0 0.0 0.00 0.00 0.00 88 1018.4
20260502041517 41 34 0.0 2.0 0.00 0.00 0.00 85 1018.5
20260502040015 42 34 0.0 0.0 0.00 0.00 0.00 83 1018.5
20260502034506 43 34 0.0 2.0 0.00 0.00 0.00 82 1018.5
20260502033008 44 311 0.0 0.0 0.00 0.00 0.00 79 1018.2
20260502031512 46 311 0.0 0.0 0.00 0.00 0.00 77 1018.2
20260502030018 47 311 0.0 0.0 0.00 0.00 0.00 74 1018.4
20260502024523 48 311 0.0 0.0 0.00 0.00 0.00 73 1018.5